GFSCGP_500_spd_162.txt.gz
Wind_Speed
53 57 58 57 59 57 55 58 60 62 58 51 56 67 68 64 63 62 61 65 67 67 67 67 65 65 60 60 60 58 49 49 46 45 42 41 41 43 46 47 48 48 44 44
57 58 53 56 52 54 54 56 61 62 54 35 37 58 62 55 67 64 60 61 61 62 50 61 67 68 66 63 64 62 55 53 49 49 47 46 45 47 48 50 49 47 46 43
48 47 48 50 47 47 51 52 56 57 55 48 36 46 42 45 46 65 64 59 58 54 50 55 57 63 62 63 63 65 60 56 51 49 50 48 49 50 49 49 43 44 46 45
41 38 36 39 36 33 49 50 49 47 40 48 46 47 43 41 53 66 65 57 56 52 53 52 54 55 55 57 55 56 57 47 43 48 47 48 45 47 50 54 46 43 49 48
35 38 40 44 35 43 42 40 44 37 41 40 51 45 44 45 58 58 60 58 55 53 50 50 51 54 54 48 46 51 52 49 53 48 46 44 48 41 46 48 49 49 46 45
40 40 35 34 37 47 40 36 44 48 41 46 44 50 55 40 33 45 58 52 55 56 50 47 48 49 53 52 50 46 49 48 45 42 46 43 35 35 38 43 44 43 42 44
36 31 34 34 40 39 36 42 39 36 46 48 45 50 58 39 38 40 43 48 55 56 55 51 49 48 49 49 43 40 42 41 42 40 42 41 46 44 40 42 42 43 44 43
34 26 31 32 33 38 44 46 43 43 49 44 44 49 45 56 53 33 28 32 44 54 48 48 49 48 47 48 44 40 40 44 42 42 41 41 43 42 43 43 42 42 41 41
34 32 31 36 36 38 39 48 53 54 29 31 32 36 28 38 38 43 36 38 36 48 52 48 44 46 47 48 47 42 42 40 41 41 40 42 43 44 43 42 43 41 42 41
32 33 28 28 44 37 39 41 38 41 35 40 32 28 22 26 27 39 46 45 43 42 43 46 44 46 47 44 45 44 38 41 42 41 41 42 42 41 42 44 42 42 41 38
31 26 22 26 26 23 37 43 45 44 35 42 36 29 29 26 38 34 39 46 51 47 48 46 38 36 39 44 48 43 42 40 39 40 40 40 43 44 44 42 41 39 36 32
31 16 22 26 27 11 28 38 30 32 34 40 34 35 38 40 45 39 44 42 42 46 49 45 42 43 47 47 46 35 34 38 39 40 41 42 42 42 41 39 35 32 29 29
27 25 15 16 16 10 36 29 35 35 33 40 34 22 20 44 41 46 43 33 35 39 39 43 40 38 29 31 32 39 40 41 42 42 42 43 43 38 36 31 27 27 27 28
29 28 20 17 18 24 27 30 31 30 30 26 43 28 30 23 25 24 23 23 23 31 39 40 40 38 40 40 42 43 42 42 42 41 43 41 36 32 28 27 25 25 26 27
27 25 20 19 21 23 25 32 33 24 37 33 36 41 43 39 40 37 40 31 26 31 39 39 41 43 43 43 44 43 42 41 40 40 37 34 31 28 28 25 24 25 27 29
25 19 19 15 25 26 29 29 31 35 35 36 27 45 27 26 21 47 33 32 29 32 38 43 46 46 47 45 43 43 40 38 37 35 34 32 28 28 26 26 26 28 29 29
13 13 17 14 26 25 30 25 24 26 25 22 25 18 28 29 33 29 23 26 28 36 38 44 53 50 45 42 39 38 35 35 35 35 33 31 31 29 27 28 29 30 30 32
15 15 14 10 19 14 16 20 22 20 16 16 29 22 16 12 19 22 27 28 34 39 39 43 40 42 39 36 33 32 34 35 35 34 33 33 33 32 30 29 30 33 32 33
15 21 17 4 17 19 26 29 27 21 17 12 20 16 21 13 13 26 26 29 35 40 32 18 24 34 33 30 31 33 35 36 38 38 38 39 37 32 32 31 32 33 32 32
7 8 5 7 5 28 27 21 16 19 15 19 26 17 31 2 12 16 19 24 27 33 35 35 36 35 36 39 41 41 41 40 39 41 43 45 36 31 35 33 34 34 29 30
8 13 10 11 15 21 22 22 21 19 25 30 20 23 16 15 21 20 20 22 26 27 30 34 35 34 36 36 39 41 42 42 43 44 45 35 29 29 25 18 21 22 26 26
6 9 9 11 14 6 20 14 17 19 28 18 23 17 26 19 19 17 22 24 26 28 31 31 33 34 36 35 40 42 42 37 41 38 28 21 24 20 26 21 21 21 23 26
5 6 5 7 8 8 10 12 11 13 26 25 26 27 23 23 19 15 13 14 24 26 30 34 31 29 21 22 27 31 38 37 40 35 29 22 23 20 20 18 16 20 22 25
3 6 8 8 10 9 12 12 10 9 19 9 21 23 26 24 21 16 18 16 14 16 33 38 23 27 27 30 32 32 28 31 30 34 29 31 21 20 19 17 20 21 21 24
5 7 7 9 13 13 12 12 13 14 9 7 11 18 24 21 18 18 18 19 20 21 35 33 27 30 22 17 16 19 31 37 29 17 19 21 20 17 17 20 20 20 24 22
13 13 11 9 11 12 12 12 18 13 8 12 18 20 21 18 18 19 22 21 14 21 21 27 19 14 14 14 13 13 20 22 18 19 20 18 15 16 16 17 18 22 22 19

GFSCGP_500_spd_165.txt.gz
Wind_Speed
51 54 57 56 57 57 58 60 61 60 53 58 59 59 56 58 63 63 65 68 68 68 65 67 63 59 62 63 65 63 56 50 42 41 44 31 31 35 37 39 42 42 40 42
49 53 48 56 56 57 58 58 62 62 57 56 58 62 62 59 62 64 64 63 63 63 62 62 60 59 62 65 66 66 59 54 44 41 49 38 37 40 43 45 45 45 45 45
44 39 47 51 54 58 58 58 59 58 53 48 52 62 67 66 56 57 64 64 62 62 59 59 57 54 59 65 67 64 60 54 42 48 44 40 43 45 46 44 46 46 49 46
44 35 40 42 36 37 47 42 44 46 48 54 48 57 58 65 54 42 55 69 65 62 56 54 48 51 50 52 59 65 63 58 55 47 47 47 47 48 47 44 45 46 46 41
29 37 34 39 41 42 39 37 41 41 52 44 52 57 60 55 48 47 49 50 68 61 61 55 49 50 50 54 47 47 54 54 41 39 48 49 47 52 49 50 43 40 43 40
36 26 31 40 43 42 38 50 46 46 42 49 56 51 55 58 52 55 53 50 61 59 56 56 53 52 54 50 40 42 42 41 43 42 42 44 36 31 41 45 31 38 36 36
46 41 37 32 35 40 38 30 44 47 47 49 47 53 55 51 56 54 42 45 45 54 53 53 49 50 49 48 41 38 34 40 41 42 41 40 37 35 32 28 35 31 36 41
45 42 38 38 38 36 44 44 41 42 36 38 42 47 47 45 51 42 44 44 48 49 55 53 52 47 47 44 43 43 36 40 44 44 42 42 44 37 32 42 41 45 42 41
34 28 29 31 37 44 35 46 49 49 46 46 29 29 25 24 41 48 50 47 47 45 44 56 50 50 50 46 42 39 40 37 39 37 38 43 45 43 42 39 40 39 42 45
17 14 22 31 31 33 36 34 41 48 52 52 52 35 28 28 35 39 46 52 45 45 44 46 54 48 49 49 46 43 42 40 40 43 43 42 42 40 39 38 39 43 45 41
21 25 20 14 24 31 39 41 43 39 48 40 45 34 35 31 30 45 49 52 41 41 36 42 40 47 45 45 45 44 42 42 42 43 42 43 42 40 40 41 45 44 41 38
25 20 22 18 16 25 23 37 44 37 38 40 34 37 32 31 41 36 47 49 42 36 45 39 39 38 46 45 40 38 40 44 41 41 44 43 42 42 43 47 44 40 36 35
22 18 19 9 9 17 13 22 40 32 32 34 46 37 37 36 27 39 48 49 48 49 51 46 41 36 36 37 38 41 40 41 38 44 43 44 42 45 46 44 39 36 34 34
19 16 18 16 16 15 13 15 33 19 28 28 44 38 36 24 32 25 41 50 46 50 53 53 49 38 36 35 35 35 38 41 45 46 45 44 44 45 42 36 35 33 32 28
16 19 17 13 12 16 12 18 24 26 24 28 23 25 34 10 30 35 44 45 40 38 40 43 44 47 42 38 38 41 42 43 46 45 44 44 43 40 37 34 33 30 26 24
16 14 15 12 14 11 10 16 21 18 19 19 24 26 29 25 13 15 36 41 33 21 25 36 39 42 45 42 41 40 43 44 43 42 40 39 38 35 32 29 28 25 23 25
7 13 13 5 14 13 5 17 20 21 19 16 23 21 18 27 29 16 22 31 28 23 27 36 44 51 49 47 44 40 39 38 39 40 39 37 33 29 26 26 23 22 23 26
3 8 10 6 10 12 7 16 15 17 14 18 14 15 15 22 20 18 18 16 26 33 33 35 47 63 58 51 45 43 38 41 42 42 34 30 28 28 27 24 22 23 25 28
4 7 4 9 3 8 8 14 19 21 20 17 13 17 11 15 20 11 17 24 29 29 34 42 49 46 42 49 39 36 39 41 38 33 32 31 30 29 27 26 25 26 27 31
3 8 13 2 1 9 13 20 18 15 15 14 12 15 7 9 9 9 11 15 19 26 41 23 37 45 34 31 39 44 47 39 31 30 31 30 30 29 29 32 30 28 28 35
4 1 2 7 15 13 21 20 21 18 15 11 16 20 11 2 1 7 11 14 17 20 20 24 21 23 30 32 29 26 25 26 29 30 30 30 30 31 35 34 30 29 30 26
3 4 6 16 16 18 21 15 18 14 12 10 21 16 19 11 3 7 14 14 15 16 18 22 20 20 24 27 24 21 25 28 30 31 31 32 35 33 35 35 29 19 19 18
5 7 9 8 11 21 16 11 9 12 15 14 12 22 8 11 13 12 13 17 16 15 16 17 19 24 24 23 24 24 25 28 31 32 34 34 34 27 23 21 21 20 17 19
4 4 4 8 9 9 7 7 9 4 8 9 10 16 10 13 18 18 16 16 16 17 17 18 18 21 23 24 24 25 27 26 27 32 35 31 31 22 22 19 19 19 18 22
6 6 7 6 8 9 10 9 6 5 7 6 19 20 13 17 20 16 18 19 13 17 21 20 22 21 22 20 24 26 26 26 25 22 25 29 27 29 27 23 21 20 23 22
18 12 4 6 5 8 8 5 3 4 5 11 9 22 20 17 17 11 16 13 10 9 21 22 22 18 20 22 24 25 25 25 25 26 21 21 21 25 22 20 19 21 20 22

GFSCGP_500_spd_168.txt.gz
Wind_Speed
66 69 69 66 64 65 65 66 66 62 61 69 64 61 59 57 60 58 62 67 69 75 70 71 70 69 65 60 56 51 50 46 44 44 38 37 36 33 36 33 35 38 39 39
46 56 53 58 58 59 62 65 66 64 62 61 68 68 68 67 64 59 61 66 66 67 68 70 72 69 69 65 56 54 54 52 51 44 43 44 41 40 37 39 38 38 38 40
43 40 40 46 48 54 57 60 61 62 55 55 58 72 73 70 69 66 65 63 66 66 67 68 67 67 65 65 58 55 56 55 53 53 49 47 47 39 38 40 45 42 42 45
47 30 37 43 47 45 50 51 56 55 55 57 51 67 67 71 71 70 70 66 65 65 67 67 67 68 65 63 59 54 58 59 54 53 52 52 48 47 36 39 45 48 46 47
39 31 19 30 38 40 41 39 40 52 54 52 54 61 72 65 66 67 70 69 67 65 63 68 67 64 62 62 59 56 54 54 49 51 53 44 50 44 50 49 54 54 52 52
39 40 32 31 37 38 33 42 43 42 47 56 51 51 69 64 61 62 61 65 65 62 60 64 67 64 58 55 54 56 51 49 46 39 41 44 42 40 48 53 52 56 58 52
40 45 46 36 44 35 42 42 42 49 51 55 41 49 51 51 53 52 49 52 57 62 61 59 63 65 62 56 53 51 48 47 41 42 35 38 43 44 36 44 33 35 40 40
60 52 50 49 44 40 29 37 44 45 41 33 51 51 42 32 39 47 46 46 49 46 47 52 46 57 61 59 51 47 45 42 35 32 36 40 42 33 38 27 29 31 31 33
56 51 51 44 36 43 36 40 35 45 28 34 39 47 21 31 32 44 50 54 51 50 49 49 49 50 55 55 54 48 46 48 40 29 26 33 36 37 34 30 34 40 39 39
34 45 35 22 24 37 41 37 39 40 42 42 36 35 27 20 34 35 53 57 59 52 46 45 46 46 44 51 49 48 47 44 42 41 39 35 37 37 39 39 42 45 45 46
12 24 11 14 21 31 34 34 35 41 39 45 43 39 35 31 25 32 52 60 54 62 59 54 48 44 41 47 50 48 48 47 44 45 44 42 41 42 45 45 44 43 41 44
12 26 16 7 13 10 18 27 28 33 38 40 35 28 34 42 41 40 48 58 64 57 57 54 50 44 41 51 53 53 50 48 46 46 46 46 45 46 45 44 43 40 42 42
18 24 12 8 17 16 19 23 25 27 34 39 45 28 36 42 42 44 41 45 56 66 57 53 44 46 47 52 53 53 52 51 50 49 49 46 47 47 47 45 43 44 42 38
12 18 10 15 18 17 15 19 24 23 34 33 37 35 31 39 46 45 36 38 46 58 52 49 45 50 49 49 56 51 51 52 50 49 49 43 45 47 45 44 44 41 38 34
11 13 12 10 10 13 13 8 14 18 21 30 20 25 24 33 36 40 41 43 44 50 44 47 48 49 41 37 50 54 51 50 48 46 42 46 47 45 45 45 42 37 34 32
10 8 5 6 8 10 8 9 6 12 9 8 9 9 22 21 29 32 34 30 33 51 44 53 50 47 44 38 37 45 51 49 47 44 44 47 49 47 47 42 37 33 32 31
3 0 1 2 4 7 5 12 12 9 10 10 12 12 12 25 30 7 14 25 33 44 42 47 44 43 43 43 42 41 44 45 42 44 44 44 44 45 40 34 32 31 29 31
9 6 1 3 4 4 8 10 9 10 13 6 8 2 8 7 3 5 18 33 24 33 28 39 44 42 43 42 41 45 43 41 38 42 44 44 42 38 35 33 29 28 30 29
7 5 4 2 4 4 8 4 8 12 14 14 12 6 4 6 3 8 5 5 27 27 22 20 26 43 35 40 43 42 40 39 39 39 41 42 38 37 32 30 31 28 26 26
8 9 9 4 3 10 12 10 11 18 19 15 13 8 9 5 4 9 10 17 16 16 18 21 23 33 20 52 45 42 41 42 35 33 34 37 33 31 30 30 26 25 28 29
10 7 7 8 8 17 11 13 14 14 18 19 15 15 15 10 7 6 10 14 13 15 18 12 14 21 29 23 40 43 43 39 33 30 35 34 32 31 30 26 27 29 29 26
4 5 4 11 16 22 12 11 10 13 12 14 14 17 11 9 8 4 5 8 12 11 13 9 25 13 31 30 29 35 38 33 34 39 38 33 28 27 27 28 29 28 27 27
7 7 15 15 17 17 12 8 5 6 13 15 12 11 9 8 5 10 10 7 7 7 11 17 8 17 24 17 28 28 31 30 31 26 25 26 28 29 27 24 20 23 24 21
7 9 14 14 15 12 8 3 1 2 4 4 15 14 10 9 6 9 8 13 12 9 9 6 12 10 12 17 19 17 18 18 19 19 21 22 24 25 24 25 26 23 22 22
12 10 11 12 10 8 7 7 4 7 12 7 19 17 9 5 10 10 8 9 12 13 16 18 11 14 15 17 17 16 16 18 19 20 21 23 24 26 26 25 23 22 20 19
13 11 8 8 9 7 9 7 7 6 8 15 17 12 5 9 9 4 2 6 7 11 17 20 14 14 14 17 17 18 22 21 20 21 20 20 25 25 25 26 27 26 20 21

GFSCGP_500_spd_171.txt.gz
Wind_Speed
65 70 72 68 68 73 78 76 76 72 70 74 69 66 65 62 60 60 66 73 71 69 69 71 68 67 62 58 54 47 40 35 36 36 34 33 33 35 37 39 36 33 35 33
51 56 58 60 66 70 72 77 76 76 72 74 75 74 73 70 63 62 64 68 73 75 73 70 73 69 65 62 58 54 48 45 41 38 34 34 35 40 42 43 47 41 40 38
51 46 45 49 53 59 70 75 74 76 72 72 76 81 78 73 70 67 66 67 68 73 75 78 78 76 72 70 63 59 52 45 41 45 46 45 46 44 44 43 41 47 42 43
49 40 40 47 53 47 52 53 66 76 78 75 68 81 81 80 75 73 70 69 68 67 69 74 78 78 72 70 64 58 54 47 46 46 46 48 46 48 47 42 37 41 45 43
43 45 43 45 43 44 46 40 42 48 59 68 65 70 76 81 82 76 73 71 70 70 69 69 73 75 73 70 65 58 56 52 49 48 45 46 46 47 49 43 43 44 53 44
48 47 40 42 38 23 24 30 40 41 45 53 61 60 80 69 75 80 78 75 72 71 70 71 72 74 72 70 66 61 61 58 54 52 49 44 45 42 45 48 47 52 48 46
56 59 47 42 43 31 25 28 32 35 43 49 45 48 75 68 63 65 71 72 74 73 72 73 74 76 74 70 67 63 56 54 51 50 49 41 44 40 41 46 51 47 50 54
50 55 54 54 39 42 31 29 27 42 31 39 47 53 51 50 49 53 56 63 67 69 70 68 71 74 76 73 68 66 59 52 50 45 39 41 39 44 46 39 40 43 49 55
21 39 42 47 50 50 37 37 30 35 48 43 42 34 28 37 36 35 42 49 61 64 65 66 61 65 70 72 70 64 58 53 51 43 40 42 39 45 46 47 43 49 55 43
12 13 19 28 35 37 32 32 33 39 38 37 38 31 15 29 38 37 39 47 54 60 65 70 66 62 60 61 57 64 62 58 51 47 46 43 38 45 47 46 34 50 39 27
14 11 5 12 16 23 27 35 38 42 37 35 33 35 22 23 31 38 32 38 51 58 61 64 67 62 63 63 62 61 63 63 56 51 52 47 40 39 46 44 39 37 36 39
6 1 17 6 18 19 24 22 28 37 36 34 36 27 32 31 36 38 33 39 43 56 63 61 62 61 53 57 56 56 60 63 60 53 54 53 49 45 42 40 39 41 40 43
10 8 14 3 16 20 10 13 21 27 31 30 36 35 28 29 38 39 38 39 38 54 63 61 56 56 59 58 52 51 61 60 61 59 55 55 52 51 49 47 45 43 41 41
5 8 13 2 6 14 9 11 17 24 28 29 32 30 28 29 29 43 50 50 44 39 60 65 61 58 57 46 44 45 52 60 61 60 58 57 53 52 51 48 45 45 41 38
4 8 6 3 6 9 11 14 17 21 22 23 17 21 22 29 33 35 49 50 41 38 56 65 67 60 53 53 47 48 51 59 59 58 57 54 51 50 48 47 46 43 39 36
7 3 2 1 2 5 13 8 10 4 7 6 8 8 15 21 24 29 41 38 38 38 47 61 59 64 57 52 46 48 55 56 58 54 54 51 50 48 47 45 43 42 39 34
4 2 2 0 2 4 7 8 3 4 3 7 8 6 2 6 11 18 24 36 40 39 47 50 62 52 51 46 46 44 49 48 55 54 54 52 48 45 46 46 42 38 33 33
7 4 1 5 3 4 3 5 4 5 5 6 5 5 2 10 9 19 13 10 34 45 54 43 58 60 51 44 42 38 30 44 49 50 50 47 45 44 44 42 37 34 34 34
10 7 5 4 7 6 2 2 8 8 11 8 8 9 6 4 2 1 11 7 8 32 43 37 55 52 51 52 47 39 34 30 36 39 38 40 42 42 37 35 34 35 30 28
7 8 10 3 3 7 12 5 9 13 12 11 10 12 10 8 5 11 3 9 19 20 22 24 47 53 50 50 44 42 37 32 34 36 36 39 40 40 38 38 31 25 27 30
7 11 10 7 14 17 16 12 13 10 13 13 10 12 12 12 13 13 10 12 16 13 13 19 26 34 27 40 45 46 40 38 37 40 41 38 39 44 41 31 25 27 31 31
8 9 10 16 24 17 13 13 8 13 14 12 17 12 11 14 13 15 13 12 12 9 7 9 11 16 25 23 39 50 42 43 42 41 42 39 45 37 27 25 30 30 29 32
8 9 14 22 19 12 7 14 11 8 14 6 11 5 3 8 13 15 15 17 16 13 10 11 15 15 20 22 26 32 42 44 47 44 37 30 26 26 30 30 30 30 31 32
10 13 15 14 13 11 10 8 6 5 10 10 9 5 5 10 11 11 14 14 18 18 18 13 14 12 18 19 24 29 42 43 44 33 28 22 24 29 30 29 29 30 28 29
9 12 13 9 8 7 10 9 9 6 10 12 8 9 11 10 9 5 8 10 16 21 11 12 13 16 20 20 18 16 22 24 20 22 23 24 26 27 27 28 29 26 23 27
7 7 7 6 9 8 6 7 13 12 13 17 14 9 11 13 12 8 8 12 14 16 16 11 10 13 17 19 18 18 18 18 19 21 23 24 24 24 26 27 25 23 22 22